TimeEST,TemperatureF,Dew PointF,Humidity,Sea Level PressureIn,VisibilityMPH,Wind Direction,Wind SpeedMPH,Gust SpeedMPH,PrecipitationIn,Events,Conditions,WindDirDegrees,DateUTC
12:17 AM,47.3,37.0,68,30.11,10.0,South,3.5,-,N/A,,Scattered Clouds,190,2012-11-20 05:17:00
12:36 AM,46.4,36.9,69,30.10,10.0,Calm,Calm,-,N/A,,Clear,0,2012-11-20 05:36:00
12:56 AM,41.2,35.1,79,30.10,10.0,ESE,3.5,-,N/A,,Clear,110,2012-11-20 05:56:00
1:16 AM,39.9,34.9,82,30.10,10.0,Calm,Calm,-,N/A,,Scattered Clouds,0,2012-11-20 06:16:00
1:36 AM,40.3,35.6,83,30.09,10.0,SE,3.5,-,N/A,,Scattered Clouds,130,2012-11-20 06:36:00
1:57 AM,42.3,37.0,82,30.09,10.0,Calm,Calm,-,N/A,,Clear,0,2012-11-20 06:57:00
2:16 AM,43.9,38.5,81,30.09,10.0,Calm,Calm,-,N/A,,Clear,0,2012-11-20 07:16:00
2:36 AM,43.3,37.9,81,30.09,10.0,SSE,3.5,-,N/A,,Clear,150,2012-11-20 07:36:00
2:57 AM,45.5,39.2,79,30.10,10.0,Calm,Calm,-,N/A,,Clear,0,2012-11-20 07:57:00
3:16 AM,45.7,39.0,78,30.09,10.0,SSE,3.5,-,N/A,,Clear,160,2012-11-20 08:16:00
3:36 AM,45.9,39.6,79,30.09,10.0,SSE,3.5,-,N/A,,Mostly Cloudy,150,2012-11-20 08:36:00
3:57 AM,45.7,39.4,79,30.08,10.0,Calm,Calm,-,N/A,,Mostly Cloudy,0,2012-11-20 08:57:00
4:16 AM,45.1,39.2,80,30.08,10.0,South,3.5,-,N/A,,Mostly Cloudy,170,2012-11-20 09:16:00
4:37 AM,45.5,39.4,79,30.08,10.0,South,3.5,-,N/A,,Scattered Clouds,170,2012-11-20 09:37:00
4:57 AM,45.3,39.4,80,30.08,10.0,South,5.8,-,N/A,,Scattered Clouds,180,2012-11-20 09:57:00
5:16 AM,45.5,39.4,79,30.08,10.0,South,3.5,-,N/A,,Scattered Clouds,190,2012-11-20 10:16:00
5:37 AM,46.2,40.6,81,30.08,10.0,SSW,4.6,-,N/A,,Mostly Cloudy,200,2012-11-20 10:37:00
5:56 AM,47.1,41.4,80,30.08,10.0,SSW,4.6,-,N/A,,Overcast,200,2012-11-20 10:56:00
6:17 AM,48.2,41.9,79,30.08,10.0,SSW,4.6,-,N/A,,Overcast,200,2012-11-20 11:17:00
6:37 AM,48.2,42.1,79,30.08,10.0,SW,5.8,-,N/A,,Overcast,220,2012-11-20 11:37:00
6:56 AM,48.2,42.1,79,30.08,10.0,SW,4.6,-,N/A,,Overcast,230,2012-11-20 11:56:00
7:17 AM,48.2,42.1,79,30.08,10.0,SSW,4.6,-,N/A,,Overcast,210,2012-11-20 12:17:00
7:36 AM,48.2,42.4,80,30.08,7.0,South,3.5,-,N/A,,Overcast,190,2012-11-20 12:36:00
7:56 AM,48.2,42.8,82,30.09,7.0,SSW,3.5,-,N/A,,Overcast,210,2012-11-20 12:56:00
8:17 AM,48.2,42.8,82,30.09,7.0,South,3.5,-,N/A,,Overcast,190,2012-11-20 13:17:00
8:36 AM,48.2,43.0,82,30.10,5.0,SSW,3.5,-,N/A,,Haze,210,2012-11-20 13:36:00
8:56 AM,48.2,43.3,83,30.10,5.0,SW,3.5,-,N/A,,Haze,230,2012-11-20 13:56:00
9:16 AM,48.2,43.7,84,30.10,5.0,SW,4.6,-,N/A,,Mostly Cloudy,230,2012-11-20 14:16:00
9:36 AM,48.9,44.8,86,30.09,4.0,SSW,4.6,-,N/A,,Scattered Clouds,210,2012-11-20 14:36:00
9:57 AM,49.5,45.0,84,30.09,4.0,SW,6.9,-,N/A,,Haze,230,2012-11-20 14:57:00
10:16 AM,49.8,45.0,83,30.08,5.0,SSW,5.8,-,N/A,,Haze,210,2012-11-20 15:16:00
10:36 AM,50.5,45.1,82,30.08,5.0,SW,6.9,-,N/A,,Haze,220,2012-11-20 15:36:00
10:57 AM,50.7,44.6,80,30.10,5.0,WSW,6.9,-,N/A,,Haze,250,2012-11-20 15:57:00
11:16 AM,51.1,44.8,79,30.09,5.0,SW,5.8,-,N/A,,Haze,230,2012-11-20 16:16:00
11:37 AM,50.9,44.4,78,30.09,7.0,SW,4.6,-,N/A,,Overcast,230,2012-11-20 16:37:00
11:57 AM,51.6,44.6,77,30.08,7.0,SSW,4.6,-,N/A,,Overcast,200,2012-11-20 16:57:00
12:16 PM,52.5,44.8,75,30.08,7.0,WSW,8.1,-,N/A,,Overcast,250,2012-11-20 17:16:00
12:37 PM,50.5,44.4,80,30.09,5.0,WSW,6.9,-,N/A,,Haze,240,2012-11-20 17:37:00
12:56 PM,50.5,44.6,80,30.09,5.0,SSW,8.1,-,N/A,,Haze,210,2012-11-20 17:56:00
1:16 PM,50.4,44.4,80,30.08,5.0,WSW,6.9,-,N/A,,Haze,250,2012-11-20 18:16:00
1:37 PM,50.5,44.2,79,30.09,5.0,WSW,8.1,-,N/A,,Haze,250,2012-11-20 18:37:00
1:56 PM,50.4,44.2,80,30.09,5.0,WSW,6.9,-,N/A,,Haze,240,2012-11-20 18:56:00
2:16 PM,50.4,44.1,79,30.09,5.0,WSW,5.8,-,N/A,,Haze,250,2012-11-20 19:16:00
2:36 PM,50.9,43.7,76,30.09,7.0,WSW,5.8,-,N/A,,Overcast,240,2012-11-20 19:36:00
2:56 PM,50.9,43.7,76,30.09,7.0,WSW,4.6,-,N/A,,Overcast,240,2012-11-20 19:56:00
3:17 PM,50.2,43.5,78,30.09,7.0,WSW,4.6,-,N/A,,Overcast,250,2012-11-20 20:17:00
3:36 PM,50.0,43.0,77,30.10,7.0,WSW,4.6,-,N/A,,Overcast,250,2012-11-20 20:36:00
3:56 PM,50.0,43.2,77,30.10,7.0,WSW,3.5,-,N/A,,Overcast,240,2012-11-20 20:56:00
4:17 PM,49.5,43.0,78,30.10,7.0,Calm,Calm,-,N/A,,Overcast,0,2012-11-20 21:17:00
4:36 PM,49.5,42.8,78,30.10,7.0,Calm,Calm,-,N/A,,Overcast,0,2012-11-20 21:36:00
4:56 PM,49.3,42.8,78,30.10,7.0,WSW,5.8,-,N/A,,Overcast,250,2012-11-20 21:56:00
5:17 PM,49.3,43.0,79,30.11,10.0,WSW,4.6,-,N/A,,Overcast,240,2012-11-20 22:17:00
5:36 PM,49.1,43.0,79,30.11,10.0,West,3.5,-,N/A,,Overcast,260,2012-11-20 22:36:00
5:57 PM,48.4,42.6,80,30.12,10.0,Calm,Calm,-,N/A,,Overcast,0,2012-11-20 22:57:00
6:17 PM,48.0,42.1,80,30.12,10.0,South,3.5,-,N/A,,Overcast,190,2012-11-20 23:17:00
6:36 PM,46.8,41.5,82,30.12,10.0,Calm,Calm,-,N/A,,Mostly Cloudy,0,2012-11-20 23:36:00
6:57 PM,43.9,39.9,86,30.13,7.0,Calm,Calm,-,N/A,,Clear,0,2012-11-20 23:57:00
7:16 PM,41.5,38.5,89,30.14,4.0,Calm,Calm,-,N/A,,Scattered Clouds,0,2012-11-21 00:16:00
7:36 PM,41.7,39.0,90,30.14,5.0,Calm,Calm,-,N/A,,Overcast,0,2012-11-21 00:36:00
7:57 PM,43.7,40.8,90,30.14,5.0,Calm,Calm,-,N/A,,Overcast,0,2012-11-21 00:57:00
8:16 PM,44.1,41.2,90,30.14,7.0,Calm,Calm,-,N/A,,Overcast,0,2012-11-21 01:16:00
8:37 PM,46.6,43.3,88,30.14,7.0,NW,4.6,-,N/A,,Overcast,320,2012-11-21 01:37:00
8:57 PM,46.8,42.8,86,30.15,7.0,NNW,3.5,-,N/A,,Overcast,340,2012-11-21 01:57:00
9:16 PM,46.6,42.4,85,30.15,7.0,Calm,Calm,-,N/A,,Overcast,0,2012-11-21 02:16:00
9:37 PM,45.7,41.9,87,30.14,7.0,NE,3.5,-,N/A,,Overcast,40,2012-11-21 02:37:00
9:57 PM,45.0,41.0,86,30.15,10.0,Calm,Calm,-,N/A,,Overcast,0,2012-11-21 02:57:00
10:16 PM,44.6,40.6,86,30.15,7.0,NNE,3.5,-,N/A,,Overcast,20,2012-11-21 03:16:00
10:37 PM,42.8,39.2,87,30.13,7.0,East,3.5,-,N/A,,Mostly Cloudy,90,2012-11-21 03:37:00
10:56 PM,42.3,39.4,90,30.13,4.0,Calm,Calm,-,N/A,,Scattered Clouds,0,2012-11-21 03:56:00
11:16 PM,39.7,37.2,91,30.13,0.2,Calm,Calm,-,N/A,Fog,Fog,0,2012-11-21 04:16:00
11:36 PM,39.2,36.9,91,30.13,0.2,Calm,Calm,-,N/A,Fog,Fog,0,2012-11-21 04:36:00
11:56 PM,36.5,34.2,91,30.14,0.2,Calm,Calm,-,N/A,Fog,Fog,0,2012-11-21 04:56:00